Regional Weather Roundup
Issued by NWS

Home | Current Version | Previous Version | Text Only | Print | Product List | Glossary On
Versions: 1 2 3 4 5 6 7 8 9 10 11 12 13 14 15 16 17 18 19 20 21 22 23 24 25 26 27 28 29 30 31 32 33 34 35 36 37 38 39 40 41 42 43 44 45 46 47 48 49 50
537
ASUS43 KBIS 290602
RWRND

NORTH DAKOTA REGIONAL WEATHER ROUNDUP
NATIONAL WEATHER SERVICE BISMARCK ND
100 AM CDT SAT JUL 29 2017

NOTE: "FAIR" INDICATES FEW OR NO CLOUDS BELOW 12,000 FEET WITH NO
SIGNIFICANT WEATHER AND/OR OBSTRUCTIONS TO VISIBILITY.


NDZ001>003-009>011-017-290700-
NORTHWEST NORTH DAKOTA

CITY           SKY/WX    TMP DP  RH WIND       PRES   REMARKS
WILLISTON      PTCLDY    79  59  50 CALM      29.98R
6HR MIN TEMP:  77; 6HR MAX TEMP:  93;

MINOT          CLEAR     72  60  66 SE3       29.99R
MINOT AFB      CLEAR     66  60  81 SE6       29.97R HAZE
$$

NDZ018>021-031>035-040>046-290700-
SOUTHWEST NORTH DAKOTA

CITY           SKY/WX    TMP DP  RH WIND       PRES   REMARKS
BISMARCK       CLEAR     68  59  73 CALM      30.04R
6HR MIN TEMP:  68; 6HR MAX TEMP:  86;

DICKINSON      CLEAR     68  60  75 SE9       30.01S
GARRISON         N/A     70  62  76 S8        30.01S
6HR MIN TEMP:  69; 6HR MAX TEMP:  83;

HETTINGER ARPT CLEAR     71  58  63 SE9       30.05R
$$

NDZ004>008-012>016-024-026-027-054-290700-
NORTHEAST NORTH DAKOTA

CITY           SKY/WX    TMP DP  RH WIND       PRES   REMARKS
GRAND FORKS    CLEAR     66  63  90 S7        30.02S
GRND FRKS AFB  PTCLDY    67  61  83 S7        30.03S
DEVILS LAKE    CLEAR     71  62  73 S7        30.04S
$$

NDZ022-023-025-028>030-036>039-047>053-290700-
SOUTHEAST NORTH DAKOTA

CITY           SKY/WX    TMP DP  RH WIND       PRES   REMARKS
FARGO          CLEAR     70  63  78 S6        30.05R
6HR MIN TEMP:  69; 6HR MAX TEMP:  84;

JAMESTOWN      CLEAR     64  59  83 S7        30.05S
$$





USA.gov is the U.S. government's official web portal to all federal, state and local government web resources and services.